Weather History for Danbury, CT

Change the Weather History Date:

Monday, March 18, 2013

  Actual Average Record
Temperature  
Mean Temperature 27 °F -  
Max Temperature 33 °F 44 °F 72 °F (2011)
Min Temperature 21 °F 24 °F -1 °F (1967)
Degree Days  
Heating Degree Days 38    
Moisture  
Dew Point 16 °F    
Average Humidity 64    
Maximum Humidity 93    
Minimum Humidity 32    
Precipitation  
Precipitation 0.22 in - - ()
Sea Level Pressure  
Sea Level Pressure 30.26 in    
Wind  
Wind Speed 7 mph (East)    
Max Wind Speed 14 mph    
Max Gust Speed 25 mph    
Visibility 5 miles    
Events Fog , Snow    
Averages and records for this station are not official NWS values.
T = Trace of Precipitation, MM = Missing Value Source: NWS Daily Summary

Daily Weather History Graph

Daily Weather History Graph

Search for Another Location

Airport:

Trip Planner

Search our weather history database for the weather conditions in past years. The results will help you decide how hot, cold, wet, or windy it might be!

Date:

Astronomy

Mar. 18, 2013 Rise Set
Actual Time 7:00 AM EDT 7:04 PM EDT
Civil Twilight 6:32 AM EDT 7:31 PM EDT
Nautical Twilight 6:00 AM EDT 8:04 PM EDT
Astronomical Twilight 5:27 AM EDT 8:36 PM EDT
Moon 10:53 AM EDT (3/18) 1:04 AM EDT (3/18)
Length of Visible Light 12h 58m
Length of Day
12h 03m
Waxing Crescent, 40% of the Moon is Illuminated
Mar 18
Waxing Crescent
Mar 19
First Quarter
Mar 27
Full
Apr 3
Last Quarter
Apr 10
New

Hourly Weather History & Observations

Time (EDT) Temp. Windchill Dew Point Humidity Pressure Visibility Wind Dir Wind Speed Gust Speed Precip Events Conditions
12:53 AM 27.0 °F 21.6 °F 6.1 °F 41% 30.34 in 10.0 mi North 4.6 mph - N/A   Clear
1:53 AM 26.1 °F 18.4 °F 7.0 °F 44% 30.34 in 10.0 mi North 6.9 mph - N/A   Clear
2:53 AM 25.0 °F 17.1 °F 6.1 °F 45% 30.36 in 10.0 mi NNE 6.9 mph - N/A   Clear
3:53 AM 23.0 °F - 8.1 °F 53% 30.37 in 10.0 mi Calm Calm - N/A   Clear
4:53 AM 21.0 °F - 9.0 °F 60% 30.39 in 10.0 mi Calm Calm - N/A   Clear
5:53 AM 21.0 °F - 8.1 °F 57% 30.41 in 10.0 mi Calm Calm - N/A   Clear
6:53 AM 21.9 °F 15.7 °F 6.1 °F 51% 30.43 in 10.0 mi ENE 4.6 mph - N/A   Clear
7:53 AM 23.0 °F 15.8 °F 6.1 °F 48% 30.43 in 10.0 mi ENE 5.8 mph - N/A   Clear
8:53 AM 24.1 °F 14.4 °F 3.9 °F 42% 30.43 in 10.0 mi NE 9.2 mph - N/A   Clear
9:53 AM 25.0 °F 17.1 °F 3.9 °F 41% 30.43 in 10.0 mi East 6.9 mph - N/A   Clear
10:53 AM 28.9 °F 21.1 °F 6.1 °F 38% 30.40 in 10.0 mi ENE 8.1 mph - N/A   Clear
11:53 AM 30.9 °F 25.2 °F 3.9 °F 32% 30.39 in 10.0 mi East 5.8 mph - N/A   Clear
12:53 PM 32.0 °F 24.8 °F 8.1 °F 37% 30.38 in 10.0 mi SSE 8.1 mph - N/A   Clear
1:53 PM 33.1 °F 27.7 °F 9.0 °F 37% 30.34 in 10.0 mi Variable 5.8 mph - N/A   Clear
2:53 PM 33.1 °F 26.1 °F 10.9 °F 40% 30.31 in 10.0 mi ESE 8.1 mph - N/A   Overcast
3:53 PM 33.1 °F 26.1 °F 10.9 °F 40% 30.28 in 10.0 mi ESE 8.1 mph - N/A   Overcast
4:53 PM 32.0 °F 27.5 °F 12.0 °F 44% 30.27 in 10.0 mi Variable 4.6 mph - N/A   Overcast
5:53 PM 30.9 °F 21.7 °F 12.0 °F 46% 30.25 in 10.0 mi ESE 11.5 mph - N/A   Overcast
6:51 PM 30.2 °F 20.8 °F 17.6 °F 60% 30.20 in 2.5 mi East 11.5 mph 25.3 mph 0.00 in Snow Light Snow
6:53 PM 30.0 °F 21.1 °F 18.0 °F 61% 30.22 in 2.5 mi ESE 10.4 mph 25.3 mph 0.00 in Snow Light Snow
7:06 PM 28.4 °F 17.5 °F 21.2 °F 74% 30.20 in 1.2 mi East 13.8 mph 20.7 mph 0.00 in Snow Light Snow
7:22 PM 28.4 °F 19.7 °F 23.0 °F 80% 30.20 in 1.0 mi East 9.2 mph - 0.00 in Snow Light Snow
7:38 PM 28.4 °F 20.4 °F 24.8 °F 86% 30.20 in 0.8 mi East 8.1 mph - 0.01 in Snow Light Snow
7:51 PM 28.4 °F 19.7 °F 24.8 °F 86% 30.19 in 0.5 mi East 9.2 mph - 0.02 in Fog , Snow Snow
7:53 PM 28.0 °F 20.0 °F 24.1 °F 85% 30.21 in 0.5 mi East 8.1 mph - 0.02 in Fog , Snow Snow
8:28 PM 28.4 °F 20.4 °F 24.8 °F 86% 30.18 in 1.2 mi ENE 8.1 mph - 0.03 in Snow Light Snow
8:34 PM 28.4 °F 19.1 °F 24.8 °F 86% 30.17 in 1.0 mi East 10.4 mph - 0.03 in Snow Light Snow
8:51 PM 28.4 °F 20.4 °F 24.8 °F 86% 30.16 in 0.8 mi East 8.1 mph - 0.03 in Snow Light Snow
8:53 PM 28.9 °F 20.4 °F 25.0 °F 85% 30.18 in 0.8 mi East 9.2 mph - 0.04 in Snow Light Snow
9:00 PM 28.4 °F 19.7 °F 24.8 °F 86% 30.16 in 1.0 mi East 9.2 mph - 0.00 in Snow Light Snow
9:16 PM 28.4 °F 19.1 °F 24.8 °F 86% 30.15 in 0.8 mi East 10.4 mph - 0.00 in Snow Light Snow
9:23 PM 28.4 °F 19.7 °F 24.8 °F 86% 30.15 in 0.5 mi East 9.2 mph 18.4 mph 0.01 in Fog , Snow Snow
9:53 PM 28.9 °F 21.1 °F 26.1 °F 89% 30.15 in 0.8 mi ENE 8.1 mph - 0.03 in Snow Light Snow
10:53 PM 28.9 °F 20.4 °F 26.1 °F 89% 30.12 in 0.8 mi East 9.2 mph - 0.06 in Snow Light Snow
11:05 PM 28.4 °F 19.1 °F 26.6 °F 93% 30.10 in 1.0 mi East 10.4 mph - 0.01 in Snow Light Snow
11:18 PM 28.4 °F 19.7 °F 26.6 °F 93% 30.09 in 0.8 mi East 9.2 mph - 0.02 in Snow Light Snow
11:53 PM 28.9 °F 19.8 °F 26.1 °F 89% 30.08 in 0.8 mi East 10.4 mph - 0.07 in Snow Light Snow